Year,Month,Day,Hour,Minute,Value (Times are PST for temperature in C)
2020,08,08,00,00,13.90
2020,08,08,00,01,13.90
2020,08,08,00,02,13.90
2020,08,08,00,03,13.90
2020,08,08,00,04,13.90
2020,08,08,00,05,13.90
2020,08,08,00,06,13.80
2020,08,08,00,07,13.70
2020,08,08,00,08,13.80
2020,08,08,00,09,13.80
2020,08,08,00,10,13.80
2020,08,08,00,11,13.90
2020,08,08,00,12,13.90
2020,08,08,00,13,13.90
2020,08,08,00,14,13.80
2020,08,08,00,15,13.80
2020,08,08,00,16,13.80
2020,08,08,00,17,13.80
2020,08,08,00,18,13.80
2020,08,08,00,19,13.80
2020,08,08,00,20,13.90
2020,08,08,00,21,13.90
2020,08,08,00,22,13.90
2020,08,08,00,23,13.90
2020,08,08,00,24,13.90
2020,08,08,00,25,13.90
2020,08,08,00,26,13.90
2020,08,08,00,27,13.90
2020,08,08,00,28,13.90
2020,08,08,00,29,13.90
2020,08,08,00,30,13.90
2020,08,08,00,31,13.80
2020,08,08,00,32,13.80
2020,08,08,00,33,13.80
2020,08,08,00,34,13.80
2020,08,08,00,35,13.80
2020,08,08,00,36,13.80
2020,08,08,00,37,13.80
2020,08,08,00,38,13.80
2020,08,08,00,39,13.80
2020,08,08,00,40,13.80
2020,08,08,00,41,13.80
2020,08,08,00,42,13.80
2020,08,08,00,43,13.80
2020,08,08,00,44,13.80
2020,08,08,00,45,13.80
2020,08,08,00,46,13.80
2020,08,08,00,47,13.80
2020,08,08,00,48,13.80
2020,08,08,00,49,13.80
2020,08,08,00,50,13.80
2020,08,08,00,51,13.80
2020,08,08,00,52,13.80
2020,08,08,00,53,13.80
2020,08,08,00,54,13.80
2020,08,08,00,55,13.80
2020,08,08,00,56,13.80
2020,08,08,00,57,13.80
2020,08,08,00,58,13.80
2020,08,08,00,59,13.80
2020,08,08,01,00,13.80
2020,08,08,01,01,13.80
2020,08,08,01,02,13.80
2020,08,08,01,03,13.80
2020,08,08,01,04,13.80
2020,08,08,01,05,13.80
2020,08,08,01,06,13.80
2020,08,08,01,07,13.80
2020,08,08,01,08,13.80
2020,08,08,01,09,13.80
2020,08,08,01,10,13.80
2020,08,08,01,11,13.80
2020,08,08,01,12,13.80
2020,08,08,01,13,13.80
2020,08,08,01,14,13.80
2020,08,08,01,15,13.80
2020,08,08,01,16,13.80
2020,08,08,01,17,13.80
2020,08,08,01,18,13.80
2020,08,08,01,19,13.70
2020,08,08,01,20,13.80
2020,08,08,01,21,13.70
2020,08,08,01,22,13.70
2020,08,08,01,23,13.70
2020,08,08,01,24,13.70
2020,08,08,01,25,13.70
2020,08,08,01,26,13.70
2020,08,08,01,27,13.80
2020,08,08,01,28,13.70
2020,08,08,01,29,13.70
2020,08,08,01,30,13.70
2020,08,08,01,31,13.70
2020,08,08,01,32,13.70
2020,08,08,01,33,13.70
2020,08,08,01,34,13.70
2020,08,08,01,35,13.70
2020,08,08,01,36,13.70
2020,08,08,01,37,13.70
2020,08,08,01,38,13.70
2020,08,08,01,39,13.70
2020,08,08,01,40,13.70
2020,08,08,01,41,13.70
2020,08,08,01,42,13.70
2020,08,08,01,43,13.70
2020,08,08,01,44,13.70
2020,08,08,01,45,13.70
2020,08,08,01,46,13.70
2020,08,08,01,47,13.70
2020,08,08,01,48,13.70
2020,08,08,01,49,13.70
2020,08,08,01,50,13.70
2020,08,08,01,51,13.70
2020,08,08,01,52,13.70
2020,08,08,01,53,13.70
2020,08,08,01,54,13.70
2020,08,08,01,55,13.70
2020,08,08,01,56,13.70
2020,08,08,01,57,13.70
2020,08,08,01,58,13.70
2020,08,08,01,59,13.70
2020,08,08,02,00,13.70
2020,08,08,02,01,13.70
2020,08,08,02,02,13.70
2020,08,08,02,03,13.70
2020,08,08,02,04,13.70
2020,08,08,02,05,13.60
2020,08,08,02,06,13.60
2020,08,08,02,07,13.60
2020,08,08,02,08,13.60
2020,08,08,02,09,13.60
2020,08,08,02,10,13.60
2020,08,08,02,11,13.60
2020,08,08,02,12,13.60
2020,08,08,02,13,13.50
2020,08,08,02,14,13.50
2020,08,08,02,15,13.50
2020,08,08,02,16,13.50
2020,08,08,02,17,13.50
2020,08,08,02,18,13.50
2020,08,08,02,19,13.60
2020,08,08,02,20,13.50
2020,08,08,02,21,13.50
2020,08,08,02,22,13.60
2020,08,08,02,23,13.60
2020,08,08,02,24,13.60
2020,08,08,02,25,13.60
2020,08,08,02,26,13.60
2020,08,08,02,27,13.60
2020,08,08,02,28,13.60
2020,08,08,02,29,13.60
2020,08,08,02,30,13.50
2020,08,08,02,31,13.50
2020,08,08,02,32,13.50
2020,08,08,02,33,13.50
2020,08,08,02,34,13.60
2020,08,08,02,35,13.50
2020,08,08,02,36,13.60
2020,08,08,02,37,13.60
2020,08,08,02,38,13.50
2020,08,08,02,39,13.40
2020,08,08,02,40,13.40
2020,08,08,02,41,13.30
2020,08,08,02,42,13.00
2020,08,08,02,43,12.80
2020,08,08,02,44,12.80
2020,08,08,02,45,12.70
2020,08,08,02,46,12.70
2020,08,08,02,47,12.60
2020,08,08,02,48,12.50
2020,08,08,02,49,12.40
2020,08,08,02,50,12.50
2020,08,08,02,51,12.70
2020,08,08,02,52,12.90
2020,08,08,02,53,13.10
2020,08,08,02,54,13.10
2020,08,08,02,55,13.20
2020,08,08,02,56,13.20
2020,08,08,02,57,13.20
2020,08,08,02,58,13.10
2020,08,08,02,59,12.90
2020,08,08,03,00,13.00
2020,08,08,03,01,13.20
2020,08,08,03,02,13.20
2020,08,08,03,03,13.30
2020,08,08,03,04,13.30
2020,08,08,03,05,13.30
2020,08,08,03,06,13.40
2020,08,08,03,07,13.40
2020,08,08,03,08,13.50
2020,08,08,03,09,13.50
2020,08,08,03,10,13.60
2020,08,08,03,11,13.60
2020,08,08,03,12,13.60
2020,08,08,03,13,13.50
2020,08,08,03,14,13.50
2020,08,08,03,15,13.40
2020,08,08,03,16,13.50
2020,08,08,03,17,13.50
2020,08,08,03,18,13.50
2020,08,08,03,19,13.40
2020,08,08,03,20,13.40
2020,08,08,03,21,13.30
2020,08,08,03,22,13.30
2020,08,08,03,23,13.30
2020,08,08,03,24,13.30
2020,08,08,03,25,13.30
2020,08,08,03,26,13.20
2020,08,08,03,27,13.10
2020,08,08,03,28,13.10
2020,08,08,03,29,13.30
2020,08,08,03,30,13.30
2020,08,08,03,31,13.30
2020,08,08,03,32,13.30
2020,08,08,03,33,13.30
2020,08,08,03,34,13.30
2020,08,08,03,35,13.30
2020,08,08,03,36,13.30
2020,08,08,03,37,13.30
2020,08,08,03,38,13.30
2020,08,08,03,39,13.30
2020,08,08,03,40,13.30
2020,08,08,03,41,13.30
2020,08,08,03,42,13.20
2020,08,08,03,43,12.90
2020,08,08,03,44,12.60
2020,08,08,03,45,12.40
2020,08,08,03,46,12.20
2020,08,08,03,47,12.20
2020,08,08,03,48,12.20
2020,08,08,03,49,12.10
2020,08,08,03,50,12.10
2020,08,08,03,51,12.00
2020,08,08,03,52,12.00
2020,08,08,03,53,12.00
2020,08,08,03,54,12.00
2020,08,08,03,55,12.00
2020,08,08,03,56,11.90
2020,08,08,03,57,11.90
2020,08,08,03,58,11.90
2020,08,08,03,59,11.80
2020,08,08,04,00,11.80
2020,08,08,04,01,11.80
2020,08,08,04,02,11.80
2020,08,08,04,03,11.80
2020,08,08,04,04,11.70
2020,08,08,04,05,11.70
2020,08,08,04,06,11.60
2020,08,08,04,07,11.60
2020,08,08,04,08,11.60
2020,08,08,04,09,11.60
2020,08,08,04,10,11.60
2020,08,08,04,11,11.50
2020,08,08,04,12,11.50
2020,08,08,04,13,11.40
2020,08,08,04,14,11.40
2020,08,08,04,15,11.40
2020,08,08,04,16,11.30
2020,08,08,04,17,11.30
2020,08,08,04,18,11.40
2020,08,08,04,19,11.40
2020,08,08,04,20,11.50
2020,08,08,04,21,11.60
2020,08,08,04,22,11.70
2020,08,08,04,23,11.80
2020,08,08,04,24,11.80
2020,08,08,04,25,11.70
2020,08,08,04,26,11.70
2020,08,08,04,27,11.70
2020,08,08,04,28,11.70
2020,08,08,04,29,11.80
2020,08,08,04,30,11.90
2020,08,08,04,31,12.00
2020,08,08,04,32,12.10
2020,08,08,04,33,12.20
2020,08,08,04,34,12.20
2020,08,08,04,35,12.20
2020,08,08,04,36,12.20
2020,08,08,04,37,12.10
2020,08,08,04,38,12.10
2020,08,08,04,39,12.00
2020,08,08,04,40,11.90
2020,08,08,04,41,11.70
2020,08,08,04,42,11.70
2020,08,08,04,43,11.70
2020,08,08,04,44,11.70
2020,08,08,04,45,11.80
2020,08,08,04,46,11.80
2020,08,08,04,47,11.80
2020,08,08,04,48,11.90
2020,08,08,04,49,12.10
2020,08,08,04,50,12.40
2020,08,08,04,51,12.60
2020,08,08,04,52,12.70
2020,08,08,04,53,12.70
2020,08,08,04,54,12.70
2020,08,08,04,55,12.80
2020,08,08,04,56,12.80
2020,08,08,04,57,12.70
2020,08,08,04,58,12.70
2020,08,08,04,59,12.60
2020,08,08,05,00,12.50
2020,08,08,05,01,12.70
2020,08,08,05,02,12.70
2020,08,08,05,03,12.70
2020,08,08,05,04,12.80
2020,08,08,05,05,12.80
2020,08,08,05,06,12.80
2020,08,08,05,07,12.80
2020,08,08,05,08,12.80
2020,08,08,05,09,12.90
2020,08,08,05,10,12.90
2020,08,08,05,11,12.90
2020,08,08,05,12,12.90
2020,08,08,05,13,12.90
2020,08,08,05,14,12.90
2020,08,08,05,15,13.00
2020,08,08,05,16,13.00
2020,08,08,05,17,13.10
2020,08,08,05,18,13.10
2020,08,08,05,19,13.20
2020,08,08,05,20,13.20
2020,08,08,05,21,13.10
2020,08,08,05,22,13.00
2020,08,08,05,23,12.90
2020,08,08,05,24,13.00
2020,08,08,05,25,13.00
2020,08,08,05,26,13.00
2020,08,08,05,27,13.00
2020,08,08,05,28,13.00
2020,08,08,05,29,13.00
2020,08,08,05,30,13.10
2020,08,08,05,31,13.10
2020,08,08,05,32,13.10
2020,08,08,05,33,13.20
2020,08,08,05,34,13.20
2020,08,08,05,35,13.20
2020,08,08,05,36,13.20
2020,08,08,05,37,13.20
2020,08,08,05,38,13.20
2020,08,08,05,39,13.20
2020,08,08,05,40,13.20
2020,08,08,05,41,13.20
2020,08,08,05,42,13.30
2020,08,08,05,43,13.30
2020,08,08,05,44,13.30
2020,08,08,05,45,13.20
2020,08,08,05,46,13.10
2020,08,08,05,47,13.00
2020,08,08,05,48,13.00
2020,08,08,05,49,12.90
2020,08,08,05,50,12.90
2020,08,08,05,51,12.80
2020,08,08,05,52,12.80
2020,08,08,05,53,12.80
2020,08,08,05,54,12.80
2020,08,08,05,55,12.70
2020,08,08,05,56,12.60
2020,08,08,05,57,12.40
2020,08,08,05,58,12.30
2020,08,08,05,59,12.40
2020,08,08,06,00,12.40
2020,08,08,06,01,12.40
2020,08,08,06,02,12.30
2020,08,08,06,03,12.30
2020,08,08,06,04,12.40
2020,08,08,06,05,12.60
2020,08,08,06,06,12.70
2020,08,08,06,07,12.70
2020,08,08,06,08,12.80
2020,08,08,06,09,12.90
2020,08,08,06,10,12.90
2020,08,08,06,11,12.90
2020,08,08,06,12,13.00
2020,08,08,06,13,13.10
2020,08,08,06,14,13.20
2020,08,08,06,15,13.30
2020,08,08,06,16,13.20
2020,08,08,06,17,13.20
2020,08,08,06,18,13.10
2020,08,08,06,19,13.00
2020,08,08,06,20,13.00
2020,08,08,06,21,12.90
2020,08,08,06,22,13.00
2020,08,08,06,23,13.00
2020,08,08,06,24,12.90
2020,08,08,06,25,12.90
2020,08,08,06,26,12.80
2020,08,08,06,27,12.80
2020,08,08,06,28,12.70
2020,08,08,06,29,12.60
2020,08,08,06,30,12.60
2020,08,08,06,31,12.60
2020,08,08,06,32,12.50
2020,08,08,06,33,12.50
2020,08,08,06,34,12.50
2020,08,08,06,35,12.50
2020,08,08,06,36,12.50
2020,08,08,06,37,12.40
2020,08,08,06,38,12.40
2020,08,08,06,39,12.30
2020,08,08,07,06,13.30
2020,08,08,07,07,13.30
2020,08,08,07,08,13.40
2020,08,08,07,09,13.40
2020,08,08,07,10,13.40
2020,08,08,07,11,13.40
2020,08,08,07,12,13.40
2020,08,08,07,13,13.40
2020,08,08,07,14,13.30
2020,08,08,07,15,13.30
2020,08,08,07,16,13.30
2020,08,08,07,17,13.20
2020,08,08,07,18,13.20
2020,08,08,07,19,13.10
2020,08,08,07,20,13.00
2020,08,08,07,21,12.90
2020,08,08,07,22,12.80
2020,08,08,07,23,12.90
2020,08,08,07,24,13.00
2020,08,08,07,25,13.00
2020,08,08,07,26,13.00
2020,08,08,07,27,13.10
2020,08,08,07,28,13.20
2020,08,08,07,29,13.20
2020,08,08,07,30,13.20
2020,08,08,07,31,13.20
2020,08,08,07,32,13.30
2020,08,08,07,33,13.50
2020,08,08,07,34,13.60
2020,08,08,07,35,13.60
2020,08,08,07,36,13.70
2020,08,08,07,37,13.80
2020,08,08,07,38,13.80
2020,08,08,07,39,13.80
2020,08,08,07,40,13.80
2020,08,08,07,41,13.80
2020,08,08,07,42,13.80
2020,08,08,07,43,13.80
2020,08,08,07,44,13.90
2020,08,08,07,45,13.90
2020,08,08,07,46,13.90
2020,08,08,07,47,13.90
2020,08,08,07,48,13.90
2020,08,08,07,49,13.90
2020,08,08,07,50,13.90
2020,08,08,07,51,13.90
2020,08,08,07,52,13.90
2020,08,08,07,53,14.00
2020,08,08,07,54,13.90
2020,08,08,07,55,14.00
2020,08,08,07,56,14.00
2020,08,08,07,57,14.00
2020,08,08,07,58,14.00
2020,08,08,07,59,14.00
2020,08,08,08,00,14.10
2020,08,08,08,01,14.10
2020,08,08,08,02,14.10
2020,08,08,08,03,14.00
2020,08,08,08,04,13.90
2020,08,08,08,05,13.90
2020,08,08,08,06,14.00
2020,08,08,08,07,14.10
2020,08,08,08,08,14.10
2020,08,08,08,09,14.10
2020,08,08,08,10,14.10
2020,08,08,08,11,14.10
2020,08,08,08,12,14.20
2020,08,08,08,13,14.20
2020,08,08,08,14,14.20
2020,08,08,08,15,14.20
2020,08,08,08,16,14.20
2020,08,08,08,17,14.20
2020,08,08,08,18,14.10
2020,08,08,08,19,14.10
2020,08,08,08,20,14.10
2020,08,08,08,21,14.10
2020,08,08,08,22,14.10
2020,08,08,08,23,14.10
2020,08,08,08,24,14.10
2020,08,08,08,25,14.10
2020,08,08,08,26,14.00
2020,08,08,08,27,14.00
2020,08,08,08,28,14.00
2020,08,08,08,29,14.00
2020,08,08,08,30,14.00
2020,08,08,08,31,14.10
2020,08,08,08,32,14.10
2020,08,08,08,33,14.10
2020,08,08,08,34,14.20
2020,08,08,08,35,14.20
2020,08,08,08,36,14.20
2020,08,08,08,37,14.30
2020,08,08,08,38,14.30
2020,08,08,08,39,14.20
2020,08,08,08,40,14.20
2020,08,08,08,41,14.10
2020,08,08,08,42,14.10
2020,08,08,08,43,14.00
2020,08,08,08,44,14.00
2020,08,08,08,45,14.10
2020,08,08,08,46,14.10
2020,08,08,08,47,14.20
2020,08,08,08,48,14.30
2020,08,08,08,49,14.30
2020,08,08,08,50,14.40
2020,08,08,08,51,14.40
2020,08,08,08,52,14.40
2020,08,08,08,53,14.40
2020,08,08,08,54,14.40
2020,08,08,08,55,14.40
2020,08,08,08,56,14.40
2020,08,08,08,57,14.40
2020,08,08,08,58,14.40
2020,08,08,08,59,14.40
2020,08,08,09,00,14.30
2020,08,08,09,01,14.30
2020,08,08,09,02,14.30
2020,08,08,09,03,14.30
2020,08,08,09,04,14.20
2020,08,08,09,05,14.20
2020,08,08,09,06,14.10
2020,08,08,09,07,14.10
2020,08,08,09,08,14.20
2020,08,08,09,09,14.20
2020,08,08,09,10,14.20
2020,08,08,09,11,14.20
2020,08,08,09,12,14.20
2020,08,08,09,13,14.20
2020,08,08,09,14,14.10
2020,08,08,09,15,14.10
2020,08,08,09,16,14.20
2020,08,08,09,17,14.20
2020,08,08,09,18,14.20
2020,08,08,09,19,14.20
2020,08,08,09,20,14.20
2020,08,08,09,21,14.20
2020,08,08,09,22,14.20
2020,08,08,09,23,14.10
2020,08,08,09,24,14.10
2020,08,08,09,25,14.10
2020,08,08,09,26,14.10
2020,08,08,09,27,14.10
2020,08,08,09,28,14.10
2020,08,08,09,29,14.20
2020,08,08,09,30,14.30
2020,08,08,09,31,14.20
2020,08,08,09,32,14.30
2020,08,08,09,33,14.40
2020,08,08,09,34,14.30
2020,08,08,09,35,14.30
2020,08,08,09,36,14.30
2020,08,08,09,37,14.30
2020,08,08,09,38,14.20
2020,08,08,09,39,14.10
2020,08,08,09,40,14.00
2020,08,08,09,41,13.90
2020,08,08,09,42,13.90
2020,08,08,09,43,13.90
2020,08,08,09,44,14.00
2020,08,08,09,45,14.00
2020,08,08,09,46,14.00
2020,08,08,09,47,14.10
2020,08,08,09,48,14.20
2020,08,08,09,49,14.30
2020,08,08,09,50,14.30
2020,08,08,09,51,14.40
2020,08,08,09,52,14.30
2020,08,08,09,53,14.30
2020,08,08,09,54,14.40
2020,08,08,09,55,14.50
2020,08,08,09,56,14.50
2020,08,08,09,57,14.60
2020,08,08,09,58,14.60
2020,08,08,09,59,14.60
2020,08,08,10,00,14.60
2020,08,08,10,01,14.50
2020,08,08,10,02,14.50
2020,08,08,10,03,14.50
2020,08,08,10,04,14.60
2020,08,08,10,05,14.60
2020,08,08,10,06,14.70
2020,08,08,10,07,14.70
2020,08,08,10,08,14.70
2020,08,08,10,09,14.80
2020,08,08,10,10,14.80
2020,08,08,10,11,14.80
2020,08,08,10,12,14.80
2020,08,08,10,13,14.80
2020,08,08,10,14,14.80
2020,08,08,10,15,14.90
2020,08,08,10,16,14.90
2020,08,08,10,17,14.90
2020,08,08,10,18,14.90
2020,08,08,10,19,14.90
2020,08,08,10,20,14.90
2020,08,08,10,21,14.90
2020,08,08,10,22,14.90
2020,08,08,10,23,14.90
2020,08,08,10,24,14.90
2020,08,08,10,25,14.90
2020,08,08,10,26,14.80
2020,08,08,10,27,14.80
2020,08,08,10,28,14.80
2020,08,08,10,29,14.80
2020,08,08,10,30,14.80
2020,08,08,10,31,14.80
2020,08,08,10,32,14.80
2020,08,08,10,33,14.80
2020,08,08,10,34,14.70
2020,08,08,10,35,14.60
2020,08,08,10,36,14.40
2020,08,08,10,37,14.20
2020,08,08,10,38,14.20
2020,08,08,10,39,14.20
2020,08,08,10,40,14.20
2020,08,08,10,41,14.30
2020,08,08,10,42,14.40
2020,08,08,10,43,14.40
2020,08,08,10,44,14.50
2020,08,08,10,45,14.60
2020,08,08,10,46,14.70
2020,08,08,10,47,14.80
2020,08,08,10,48,14.80
2020,08,08,10,49,14.80
2020,08,08,10,50,14.80
2020,08,08,10,51,14.80
2020,08,08,10,52,14.80
2020,08,08,10,53,14.90
2020,08,08,10,54,14.80
2020,08,08,10,55,14.80
2020,08,08,10,56,14.80
2020,08,08,10,57,14.80
2020,08,08,10,58,14.80
2020,08,08,10,59,14.80
2020,08,08,11,00,14.80
2020,08,08,11,01,14.70
2020,08,08,11,02,14.80
2020,08,08,11,03,14.70
2020,08,08,11,04,14.80
2020,08,08,11,05,14.80
2020,08,08,11,06,14.80
2020,08,08,11,07,14.80
2020,08,08,11,08,14.70
2020,08,08,11,09,14.60
2020,08,08,11,10,14.60
2020,08,08,11,11,14.60
2020,08,08,11,12,14.60
2020,08,08,11,13,14.60
2020,08,08,11,14,14.60
2020,08,08,11,15,14.60
2020,08,08,11,16,14.70
2020,08,08,11,17,14.70
2020,08,08,11,18,14.80
2020,08,08,11,19,14.80
2020,08,08,11,20,14.80
2020,08,08,11,21,14.70
2020,08,08,11,22,14.60
2020,08,08,11,23,14.60
2020,08,08,11,24,14.70
2020,08,08,11,25,14.70
2020,08,08,11,26,14.70
2020,08,08,11,27,14.60
2020,08,08,11,28,14.60
2020,08,08,11,29,14.70
2020,08,08,11,30,14.60
2020,08,08,11,31,14.50
2020,08,08,11,32,14.40
2020,08,08,11,33,14.50
2020,08,08,11,34,14.40
2020,08,08,11,35,14.30
2020,08,08,11,36,14.20
2020,08,08,11,37,14.20
2020,08,08,11,38,14.30
2020,08,08,11,39,14.20
2020,08,08,11,40,14.10
2020,08,08,11,41,14.00
2020,08,08,11,42,14.00
2020,08,08,11,43,13.90
2020,08,08,11,44,13.90
2020,08,08,11,45,14.00
2020,08,08,11,46,14.10
2020,08,08,11,47,14.10
2020,08,08,11,48,14.20
2020,08,08,11,49,14.20
2020,08,08,11,50,14.20
2020,08,08,11,51,14.20
2020,08,08,11,52,14.10
2020,08,08,11,53,14.10
2020,08,08,11,54,14.10
2020,08,08,11,55,14.10
2020,08,08,11,56,14.10
2020,08,08,11,57,14.10
2020,08,08,11,58,14.20
2020,08,08,11,59,14.20
2020,08,08,12,00,14.30
2020,08,08,12,01,14.30
2020,08,08,12,02,14.40
2020,08,08,12,03,14.40
2020,08,08,12,04,14.50
2020,08,08,12,05,14.60
2020,08,08,12,06,14.70
2020,08,08,12,07,14.80
2020,08,08,12,08,14.90
2020,08,08,12,09,15.10
2020,08,08,12,10,15.20
2020,08,08,12,11,15.30
2020,08,08,12,12,15.30
2020,08,08,12,13,15.30
2020,08,08,12,14,15.40
2020,08,08,12,15,15.30
2020,08,08,12,16,15.30
2020,08,08,12,17,15.30
2020,08,08,12,18,15.20
2020,08,08,12,19,15.20
2020,08,08,12,20,15.20
2020,08,08,12,21,15.20
2020,08,08,12,22,15.20
2020,08,08,12,23,15.20
2020,08,08,12,24,15.20
2020,08,08,12,25,15.20
2020,08,08,12,26,15.20
2020,08,08,12,27,15.20
2020,08,08,12,28,15.30
2020,08,08,12,29,15.30
2020,08,08,12,30,15.30
2020,08,08,12,31,15.30
2020,08,08,12,32,15.30
2020,08,08,12,33,15.30
2020,08,08,12,34,15.40
2020,08,08,12,35,15.40
2020,08,08,12,36,15.40
2020,08,08,12,37,15.50
2020,08,08,12,38,15.50
2020,08,08,12,39,15.60
2020,08,08,12,40,15.60
2020,08,08,12,41,15.70
2020,08,08,12,42,15.80
2020,08,08,12,43,15.80
2020,08,08,12,44,15.90
2020,08,08,12,45,15.90
2020,08,08,12,46,16.00
2020,08,08,12,47,16.10
2020,08,08,12,48,16.10
2020,08,08,12,49,16.10
2020,08,08,12,50,16.10
2020,08,08,12,51,16.10
2020,08,08,12,52,16.10
2020,08,08,12,53,16.20
2020,08,08,12,54,16.20
2020,08,08,12,55,16.20
2020,08,08,12,56,16.20
2020,08,08,12,57,16.20
2020,08,08,12,58,16.10
2020,08,08,12,59,16.10
2020,08,08,13,00,16.10
2020,08,08,13,01,16.10
2020,08,08,13,02,16.10
2020,08,08,13,03,16.10
2020,08,08,13,04,16.10
2020,08,08,13,05,16.10
2020,08,08,13,06,16.20
2020,08,08,13,07,16.20
2020,08,08,13,08,16.20
2020,08,08,13,09,16.20
2020,08,08,13,10,16.30
2020,08,08,13,11,16.30
2020,08,08,13,12,16.30
2020,08,08,13,13,16.30
2020,08,08,13,14,16.30
2020,08,08,13,15,16.30
2020,08,08,13,16,16.40
2020,08,08,13,17,16.40
2020,08,08,13,18,16.40
2020,08,08,13,19,16.40
2020,08,08,13,20,16.40
2020,08,08,13,21,16.40
2020,08,08,13,22,16.50
2020,08,08,13,23,16.50
2020,08,08,13,24,16.50
2020,08,08,13,25,16.50
2020,08,08,13,26,16.50
2020,08,08,13,27,16.50
2020,08,08,13,28,16.50
2020,08,08,13,29,16.50
2020,08,08,13,30,16.60
2020,08,08,13,31,16.60
2020,08,08,13,32,16.60
2020,08,08,13,33,16.60
2020,08,08,13,34,16.60
2020,08,08,13,35,16.70
2020,08,08,13,36,16.70
2020,08,08,13,37,16.70
2020,08,08,13,38,16.70
2020,08,08,13,39,16.70
2020,08,08,13,40,16.70
2020,08,08,13,41,16.80
2020,08,08,13,42,16.80
2020,08,08,13,43,16.80
2020,08,08,13,44,16.80
2020,08,08,13,45,16.80
2020,08,08,13,46,16.80
2020,08,08,13,47,16.70
2020,08,08,13,48,16.70
2020,08,08,13,49,16.80
2020,08,08,13,50,16.80
2020,08,08,13,51,16.80
2020,08,08,13,52,16.80
2020,08,08,13,53,16.80
2020,08,08,13,54,16.80
2020,08,08,13,55,16.80
2020,08,08,13,56,16.80
2020,08,08,13,57,16.80
2020,08,08,13,58,16.90
2020,08,08,13,59,16.90
2020,08,08,14,00,16.90
2020,08,08,14,01,16.90
2020,08,08,14,02,16.80
2020,08,08,14,03,16.80
2020,08,08,14,04,16.80
2020,08,08,14,05,16.70
2020,08,08,14,06,16.70
2020,08,08,14,07,16.60
2020,08,08,14,08,16.60
2020,08,08,14,09,16.60
2020,08,08,14,10,16.50
2020,08,08,14,11,16.50
2020,08,08,14,12,16.40
2020,08,08,14,13,16.40
2020,08,08,14,14,16.40
2020,08,08,14,15,16.40
2020,08,08,14,16,16.40
2020,08,08,14,17,16.30
2020,08,08,14,18,16.20
2020,08,08,14,19,15.90
2020,08,08,14,20,15.80
2020,08,08,14,21,15.50
2020,08,08,14,22,15.20
2020,08,08,14,23,15.00
2020,08,08,14,24,14.90
2020,08,08,14,25,14.90
2020,08,08,14,26,14.80
2020,08,08,14,27,14.70
2020,08,08,14,28,14.70
2020,08,08,14,29,14.60
2020,08,08,14,30,14.60
2020,08,08,14,31,14.50
2020,08,08,14,32,14.50
2020,08,08,14,33,14.40
2020,08,08,14,34,14.50
2020,08,08,14,35,14.50
2020,08,08,14,36,14.50
2020,08,08,14,37,14.50
2020,08,08,14,38,14.40
2020,08,08,14,39,14.50
2020,08,08,14,40,14.50
2020,08,08,14,41,14.40
2020,08,08,14,42,14.40
2020,08,08,14,43,14.40
2020,08,08,14,44,14.50
2020,08,08,14,45,14.60
2020,08,08,14,46,14.70
2020,08,08,14,47,14.80
2020,08,08,14,48,14.90
2020,08,08,14,49,15.00
2020,08,08,14,50,15.10
2020,08,08,14,51,15.10
2020,08,08,14,52,15.10
2020,08,08,14,53,15.10
2020,08,08,14,54,15.10
2020,08,08,14,55,15.00
2020,08,08,14,56,14.90
2020,08,08,14,57,14.70
2020,08,08,14,58,14.70
2020,08,08,14,59,14.70
2020,08,08,15,00,14.70
2020,08,08,15,01,14.60
2020,08,08,15,02,14.40
2020,08,08,15,03,14.20
2020,08,08,15,04,14.30
2020,08,08,15,05,14.40
2020,08,08,15,06,14.50
2020,08,08,15,07,14.60
2020,08,08,15,08,14.80
2020,08,08,15,09,14.90
2020,08,08,15,10,15.00
2020,08,08,15,11,15.10
2020,08,08,15,12,15.20
2020,08,08,15,13,15.10
2020,08,08,15,14,15.00
2020,08,08,15,15,14.90
2020,08,08,15,16,15.00
2020,08,08,15,17,15.00
2020,08,08,15,18,15.00
2020,08,08,15,19,15.10
2020,08,08,15,20,15.10
2020,08,08,15,21,15.00
2020,08,08,15,22,14.90
2020,08,08,15,23,14.70
2020,08,08,15,24,14.60
2020,08,08,15,25,14.60
2020,08,08,15,26,14.70
2020,08,08,15,27,14.80
2020,08,08,15,28,14.90
2020,08,08,15,29,14.90
2020,08,08,15,30,14.80
2020,08,08,15,31,14.70
2020,08,08,15,32,14.70
2020,08,08,15,33,14.70
2020,08,08,15,34,14.60
2020,08,08,15,35,14.50
2020,08,08,15,36,14.30
2020,08,08,15,37,14.20
2020,08,08,15,38,14.20
2020,08,08,15,39,14.20
2020,08,08,15,40,14.30
2020,08,08,15,41,14.40
2020,08,08,15,42,14.50
2020,08,08,15,43,14.60
2020,08,08,15,44,14.70
2020,08,08,15,45,14.80
2020,08,08,15,46,14.80
2020,08,08,15,47,14.70
2020,08,08,15,48,14.60
2020,08,08,15,49,14.50
2020,08,08,15,50,14.40
2020,08,08,15,51,14.30
2020,08,08,15,52,14.10
2020,08,08,15,53,14.00
2020,08,08,15,54,14.00
2020,08,08,15,55,14.10
2020,08,08,15,56,14.20
2020,08,08,15,57,14.40
2020,08,08,15,58,14.50
2020,08,08,15,59,14.60
2020,08,08,16,00,14.50
2020,08,08,16,01,14.40
2020,08,08,16,02,14.10
2020,08,08,16,03,14.00
2020,08,08,16,04,14.00
2020,08,08,16,05,14.00
2020,08,08,16,06,14.00
2020,08,08,16,07,14.10
2020,08,08,16,08,14.10
2020,08,08,16,09,14.10
2020,08,08,16,10,14.10
2020,08,08,16,11,14.00
2020,08,08,16,12,13.80
2020,08,08,16,13,13.60
2020,08,08,16,14,13.50
2020,08,08,16,15,13.50
2020,08,08,16,16,13.50
2020,08,08,16,17,13.50
2020,08,08,16,18,13.40
2020,08,08,16,19,13.20
2020,08,08,16,20,13.10
2020,08,08,16,21,13.10
2020,08,08,16,22,13.10
2020,08,08,16,23,13.10
2020,08,08,16,24,13.00
2020,08,08,16,25,13.00
2020,08,08,16,26,12.90
2020,08,08,16,27,12.90
2020,08,08,16,28,12.80
2020,08,08,16,29,12.80
2020,08,08,16,30,12.80
2020,08,08,16,31,12.80
2020,08,08,16,32,12.80
2020,08,08,16,33,12.90
2020,08,08,16,34,12.90
2020,08,08,16,35,12.90
2020,08,08,16,36,12.90
2020,08,08,16,37,12.90
2020,08,08,16,38,12.90
2020,08,08,16,39,12.80
2020,08,08,16,40,12.80
2020,08,08,16,41,12.80
2020,08,08,16,42,12.80
2020,08,08,16,43,12.80
2020,08,08,16,44,12.80
2020,08,08,16,45,12.70
2020,08,08,16,46,12.70
2020,08,08,16,47,12.70
2020,08,08,16,48,12.70
2020,08,08,16,49,12.70
2020,08,08,16,50,12.70
2020,08,08,16,51,12.70
2020,08,08,16,52,12.70
2020,08,08,16,53,12.70
2020,08,08,16,54,12.70
2020,08,08,16,55,12.70
2020,08,08,16,56,12.70
2020,08,08,16,57,12.70
2020,08,08,16,58,12.70
2020,08,08,16,59,12.70
2020,08,08,17,00,12.80
2020,08,08,17,01,12.80
2020,08,08,17,02,12.80
2020,08,08,17,03,12.80
2020,08,08,17,04,12.80
2020,08,08,17,05,12.80
2020,08,08,17,06,12.80
2020,08,08,17,07,12.80
2020,08,08,17,08,12.80
2020,08,08,17,09,12.80
2020,08,08,17,10,12.90
2020,08,08,17,11,12.90
2020,08,08,17,12,12.90
2020,08,08,17,13,12.90
2020,08,08,17,14,12.90
2020,08,08,17,15,12.90
2020,08,08,17,16,12.90
2020,08,08,17,17,12.90
2020,08,08,17,18,13.00
2020,08,08,17,19,13.00
2020,08,08,17,20,12.90
2020,08,08,17,21,12.90
2020,08,08,17,22,13.00
2020,08,08,17,23,12.90
2020,08,08,17,24,12.90
2020,08,08,17,25,13.00
2020,08,08,17,26,12.90
2020,08,08,17,27,12.90
2020,08,08,17,28,12.90
2020,08,08,17,29,12.90
2020,08,08,17,30,12.90
2020,08,08,17,31,12.90
2020,08,08,17,32,12.90
2020,08,08,17,33,13.00
2020,08,08,17,34,13.00
2020,08,08,17,35,13.00
2020,08,08,17,36,13.00
2020,08,08,17,37,12.90
2020,08,08,17,38,12.90
2020,08,08,17,39,12.90
2020,08,08,17,40,12.90
2020,08,08,17,41,12.90
2020,08,08,17,42,12.90
2020,08,08,17,43,12.90
2020,08,08,17,44,12.90
2020,08,08,17,45,12.90